SCP
0 0 0 1 1 1 0 0 0 0 0 0 0 0 0 0 0 0 0 0 0 0 0 0 0 0 0 0 0 0 0 0 0 0 0 0 0 0 0 0 0 0 0
0 0 0 1 1 1 0 0 0 0 0 0 0 0 0 0 0 0 0 0 0 0 0 0 0 0 0 0 0 0 0 0 0 0 0 0 0 0 0 0 0 0 0
0 0 0 1 1 1 0 0 0 0 0 0 0 0 0 0 0 0 0 0 0 0 0 0 0 0 0 0 0 0 0 0 0 0 0 0 0 0 0 0 0 0 0
0 0 0 0 1 1 0 0 0 0 0 0 0 0 0 0 0 0 0 0 0 0 0 0 0 0 0 0 0 0 0 0 0 0 0 0 0 0 0 0 0 0 0
0 0 0 0 0 0 0 0 0 0 0 0 0 0 0 0 0 0 0 0 0 0 0 0 0 0 0 0 0 0 0 0 0 0 0 0 0 0 0 0 0 0 0
0 0 0 0 0 0 0 0 0 0 0 0 0 0 0 0 0 0 0 0 0 0 0 0 0 0 0 0 0 0 0 0 0 0 0 0 0 0 0 0 0 0 0
0 0 0 0 0 0 0 0 0 0 0 0 0 0 0 0 0 0 0 0 0 0 0 0 0 0 0 0 0 0 0 0 0 0 0 0 0 0 0 0 0 0 0
0 0 0 0 0 0 0 0 0 0 0 0 0 0 0 0 0 0 0 0 0 0 0 0 0 0 0 0 0 0 0 0 0 0 0 0 0 0 0 0 0 0 0
0 0 0 0 0 0 0 0 0 0 0 0 0 0 0 0 0 0 0 0 0 0 0 0 0 0 0 0 0 0 0 0 0 0 0 0 0 0 0 0 0 0 0
0 0 0 0 0 0 0 0 0 0 0 0 0 0 0 0 0 0 0 0 0 0 0 0 0 0 0 0 0 0 0 0 0 0 0 0 0 0 0 0 0 0 0
0 0 0 0 0 0 0 0 0 0 0 0 0 0 0 0 0 0 0 0 0 0 0 0 0 0 0 0 0 0 0 0 0 0 0 0 0 0 0 0 0 0 0
0 0 0 0 0 0 0 0 0 0 0 0 0 0 0 0 0 0 0 0 0 0 0 0 0 0 0 0 0 0 0 0 0 0 0 0 0 0 0 0 0 0 0
0 0 0 0 0 0 0 0 0 0 0 0 0 0 0 0 0 0 0 0 0 0 0 0 0 0 0 0 0 0 0 0 0 0 0 0 0 0 0 0 0 0 0
0 0 0 0 0 0 0 0 0 0 0 0 0 0 0 0 0 0 0 0 0 0 0 0 0 0 0 0 0 0 0 0 0 0 0 0 0 0 0 0 0 0 0
0 0 0 0 0 0 0 0 0 0 0 0 0 0 0 0 0 0 0 0 0 0 0 0 0 0 0 0 0 0 0 0 0 0 0 0 0 0 0 0 0 0 0
0 0 0 0 0 0 0 0 0 0 0 0 0 0 0 0 0 0 0 0 0 0 0 0 0 0 0 0 0 0 0 0 0 0 0 0 0 0 0 0 0 0 0
0 0 0 0 0 0 0 0 0 0 0 0 0 0 0 0 0 0 0 0 0 0 0 0 0 0 0 0 0 0 0 0 0 0 0 0 0 0 0 0 0 0 0
0 0 0 0 0 0 0 0 0 0 0 0 0 0 0 0 0 0 0 0 0 0 0 0 0 0 0 0 0 0 0 0 0 0 0 0 0 0 0 0 0 0 0
0 0 0 0 0 0 0 0 0 0 0 0 0 0 0 0 0 0 0 0 0 0 0 0 0 0 0 0 0 0 0 0 0 0 0 0 0 0 0 0 0 0 0
0 0 0 0 0 0 0 0 0 0 0 0 0 0 0 0 0 0 0 0 0 0 0 0 0 0 0 0 0 0 0 0 0 0 0 0 0 0 0 0 0 0 0
0 0 0 0 0 0 0 0 0 0 0 0 0 0 0 0 0 0 0 0 0 0 0 0 0 0 0 0 0 0 0 0 0 0 0 0 0 0 0 0 0 0 0
0 0 0 0 0 0 0 0 0 0 0 0 0 0 0 0 0 0 0 0 0 0 0 0 0 0 0 0 0 0 0 0 0 0 0 0 0 0 0 0 0 0 0
0 0 0 0 0 0 0 0 0 0 0 0 0 0 0 0 0 0 0 0 0 0 0 0 0 0 0 0 0 0 0 0 0 0 0 0 0 0 0 0 0 0 0
0 0 0 0 0 0 0 0 0 0 0 0 0 0 0 0 0 0 0 0 0 0 0 0 0 0 0 0 0 0 0 0 0 0 0 0 0 0 0 0 0 0 0
0 0 0 0 0 0 0 0 0 0 0 0 0 0 0 0 0 0 0 0 0 0 0 0 0 0 0 0 0 0 0 0 0 0 0 0 0 0 0 0 0 0 0
0 0 0 0 0 0 0 0 0 0 0 0 0 0 0 0 0 0 0 0 0 0 0 0 0 0 0 0 0 0 0 0 0 0 0 0 0 0 0 0 0 0 0
Wind_Speed
7 10 13 13 15 15 14 12 10 8 6 5 4 4 3 2 2 2 1 1 2 3 4 4 3 1 1 3 4 3 2 3 4 5 5 6 7 6 3 3 4 4 2
8 12 12 13 15 15 14 12 10 8 6 4 4 4 3 2 2 1 0 1 1 3 4 4 4 3 1 1 3 2 1 2 2 3 5 4 2 6 5 4 6 3 1
8 12 13 13 14 14 13 12 10 8 5 4 4 4 3 2 2 1 1 1 2 2 4 6 7 6 4 1 1 1 0 0 2 4 7 7 4 2 7 5 5 4 2
8 11 11 13 13 13 13 12 10 7 5 4 4 4 3 3 2 1 1 2 2 3 4 6 7 7 5 3 1 0 2 2 3 6 8 5 5 2 7 7 6 5 4
8 10 10 11 12 13 13 11 9 7 5 5 5 4 4 4 3 1 1 3 4 4 4 5 7 7 5 5 4 4 4 4 3 8 8 7 7 4 8 9 8 8 7
9 10 11 10 12 12 12 11 9 6 5 5 5 4 5 4 3 1 1 2 3 4 4 5 6 6 6 7 7 7 8 7 6 9 8 8 8 6 9 10 9 9 9
8 8 10 10 11 11 12 11 9 6 5 5 5 5 5 5 4 2 0 1 3 4 4 5 6 6 7 8 9 9 10 8 9 9 8 8 8 9 11 12 11 10 11
8 8 9 11 9 10 11 10 9 7 6 6 6 6 5 4 4 3 2 2 3 5 5 6 6 7 7 9 10 11 10 8 10 10 9 9 9 11 14 15 15 13 12
7 8 8 10 11 10 9 9 9 8 7 7 7 6 4 2 3 4 3 4 5 6 7 8 8 9 9 10 10 10 10 8 12 10 10 9 7 12 16 17 17 16 15
7 8 8 8 9 10 10 10 9 8 7 7 6 5 3 3 4 4 5 3 5 7 9 10 10 11 11 11 11 10 9 10 13 11 8 8 10 14 17 18 19 19 17
7 7 8 8 8 8 8 7 9 9 8 7 8 7 6 8 7 6 5 3 7 9 10 11 11 12 12 11 12 11 9 9 10 8 8 10 14 17 18 19 20 21 20
10 10 9 9 9 9 6 6 7 7 7 8 7 6 6 6 5 6 3 6 9 10 11 13 14 13 13 9 8 9 8 10 9 8 8 12 17 19 20 21 21 22 22
9 10 10 10 10 9 7 6 5 4 5 6 7 7 5 5 4 5 4 5 7 8 9 8 10 9 8 8 8 8 9 9 7 8 9 13 18 21 22 22 23 24 24
9 10 11 11 10 10 9 7 6 5 4 4 5 7 5 4 4 5 4 5 5 5 6 7 6 9 10 11 11 12 12 9 8 8 9 11 18 21 23 24 25 26 26
8 9 10 11 11 10 9 7 7 6 5 5 4 5 6 5 5 5 5 5 6 5 6 7 8 9 10 11 10 11 12 13 13 12 9 12 18 22 24 25 25 26 27
6 7 8 10 11 10 9 8 7 6 5 4 4 5 5 5 5 5 6 6 6 6 6 7 9 9 9 9 11 13 14 14 13 14 13 12 16 21 24 26 27 27 28
5 5 7 8 10 10 10 8 5 4 4 3 3 4 4 5 5 5 6 6 5 6 7 7 9 8 8 9 11 13 12 13 13 14 14 12 11 15 22 25 27 28 29
4 4 4 4 7 8 7 5 3 2 1 1 2 2 3 4 5 5 5 5 6 6 6 6 7 8 8 9 10 10 11 11 14 15 14 13 12 11 14 20 24 27 29
5 5 4 2 2 4 5 3 3 2 2 2 2 3 3 4 4 3 4 5 6 5 5 6 7 8 9 10 10 10 11 12 13 14 15 15 14 14 13 13 17 22 26
6 7 7 7 6 7 6 6 6 7 7 7 7 7 8 7 8 6 5 7 7 6 6 7 8 8 8 9 10 11 11 12 12 13 14 13 12 14 15 16 14 13 20
9 10 10 10 9 8 7 7 8 8 8 8 9 11 11 11 10 9 6 7 7 6 7 9 8 10 9 9 11 11 12 13 12 10 10 11 14 15 15 16 13 12 10
10 11 12 12 12 11 9 8 9 9 9 8 8 10 11 11 10 8 9 7 7 7 8 9 9 8 8 9 10 12 10 11 8 11 13 13 14 14 14 15 15 14 13
11 11 11 13 13 13 12 9 9 8 7 7 8 7 10 10 10 9 9 8 8 7 7 9 9 9 9 10 9 8 9 10 14 10 12 13 15 14 14 15 17 18 18
10 11 12 13 13 12 10 10 11 9 8 7 6 6 7 9 10 9 9 9 8 7 8 8 9 9 9 9 8 7 9 13 12 13 12 12 15 15 16 15 16 17 18
10 10 11 13 13 12 12 11 11 9 8 6 5 7 6 7 8 9 9 8 8 7 8 9 9 9 8 8 8 9 11 10 13 15 17 14 13 13 14 15 15 15 17
9 9 10 12 12 12 11 11 11 10 8 7 7 6 5 5 6 9 8 8 8 7 8 9 9 10 8 9 8 8 9 9 11 13 17 18 16 14 15 14 14 15 14
Wind_Direction
171 169 161 172 160 155 155 153 153 152 149 147 152 153 141 130 124 105 80 35 3 343 324 303 305 337 83 119 114 98 80 63 42 20 360 351 353 351 3 358 295 229 135
157 166 164 173 164 162 160 157 159 161 165 171 175 172 162 189 192 161 41 12 14 1 348 349 336 331 337 128 120 105 93 86 52 1 338 284 289 337 327 340 323 331 167
155 165 168 176 168 167 163 159 162 168 178 196 202 181 184 190 183 153 69 11 19 16 0 359 353 351 353 358 138 135 195 268 321 335 302 262 230 299 309 302 313 305 264
158 168 174 164 172 170 164 161 163 171 185 208 218 194 194 197 191 161 66 6 3 12 1 348 346 354 8 18 35 286 283 278 299 312 276 281 270 238 293 283 276 283 279
162 174 163 162 174 171 165 163 167 175 193 212 221 217 213 209 197 188 46 11 6 10 358 340 334 337 344 347 339 320 301 282 279 274 281 282 272 257 273 276 265 269 270
165 174 162 173 176 173 168 167 170 180 201 217 224 236 237 226 215 229 46 16 1 351 338 331 328 320 318 316 310 303 301 294 257 272 278 275 267 244 259 270 259 261 263
167 173 166 177 183 179 173 171 175 188 209 223 231 241 249 251 247 253 258 348 337 328 318 312 310 309 301 296 294 293 296 296 275 281 278 274 270 266 259 266 259 251 255
168 174 170 177 193 186 180 177 182 196 215 231 239 248 257 265 281 280 270 297 307 307 300 290 287 288 290 289 288 289 291 289 278 273 270 269 270 266 261 264 268 253 247
173 177 182 185 192 194 192 188 190 201 216 233 247 261 273 297 315 309 322 315 304 304 305 301 289 282 278 279 282 287 288 285 276 269 268 264 260 262 261 261 265 264 250
183 189 191 195 199 200 199 193 198 203 212 229 246 266 272 236 239 258 261 273 288 292 298 300 299 294 289 282 276 276 278 276 262 259 255 251 246 258 261 260 260 264 261
197 202 205 207 208 214 217 196 203 206 211 224 230 223 240 251 250 239 258 279 272 275 278 282 285 290 292 272 254 257 264 261 264 263 258 250 249 255 258 258 258 259 262
205 206 210 215 214 217 219 219 221 220 216 225 242 237 244 256 268 277 266 248 261 266 267 265 271 275 270 266 245 227 255 261 266 259 251 242 247 252 254 254 255 256 257
212 207 213 216 218 220 216 222 220 221 225 232 240 247 253 262 263 261 261 239 244 247 261 258 260 261 267 273 279 272 270 275 269 265 257 240 248 253 255 254 253 253 254
220 217 216 215 216 221 224 220 222 220 222 227 231 242 249 255 261 266 266 272 273 267 274 275 275 279 277 276 274 275 275 269 265 266 265 241 249 254 257 257 256 255 254
228 225 223 220 220 217 221 227 227 226 228 229 232 241 246 256 266 274 274 275 277 281 279 280 283 288 287 285 280 277 275 274 271 267 264 239 242 252 255 256 256 255 254
247 241 233 227 224 220 217 220 225 229 227 246 245 253 258 266 277 285 282 281 282 281 284 285 285 286 284 284 284 282 278 274 269 268 268 259 236 243 251 253 253 253 253
292 271 252 242 232 225 224 226 231 232 241 250 262 275 273 274 280 282 284 288 290 292 291 287 289 285 284 286 284 283 283 280 278 274 271 271 265 244 244 252 255 254 253
332 311 289 252 233 221 218 217 218 226 245 270 297 299 295 294 291 293 297 306 315 311 303 303 303 300 298 296 295 296 292 286 281 279 278 273 272 270 258 250 254 258 260
15 19 26 27 207 185 173 160 132 105 81 57 39 20 15 5 350 339 344 343 339 335 332 329 320 317 311 307 303 298 293 289 286 282 278 278 275 272 273 268 254 254 259
42 47 58 72 92 119 126 118 102 87 77 67 59 54 50 47 40 34 30 18 9 6 359 351 338 327 316 315 308 299 294 289 282 280 283 283 281 278 275 275 272 258 249
64 62 64 72 86 101 107 107 99 89 83 74 64 58 56 52 48 42 33 27 15 12 3 354 346 332 327 330 314 310 300 288 291 289 297 300 296 292 287 282 279 278 269
70 70 70 71 76 80 86 88 91 91 81 75 68 58 52 49 44 36 30 22 14 1 1 356 352 336 329 331 324 317 311 310 304 325 308 296 297 298 297 300 299 293 289
72 72 75 77 80 85 93 99 102 98 92 77 65 57 47 44 40 36 27 17 9 2 356 350 348 340 329 325 332 321 319 316 321 295 309 310 304 304 306 305 300 296 293
82 81 82 83 83 84 89 91 91 87 80 69 59 58 54 44 37 28 21 12 5 359 353 348 346 334 329 325 327 320 311 306 305 305 304 304 308 306 303 301 300 300 297
92 87 87 86 82 79 81 85 86 83 83 76 66 54 46 43 36 23 15 8 2 356 352 345 340 337 328 325 321 314 310 307 299 304 306 306 301 299 300 301 300 298 296
105 98 95 91 84 80 80 79 80 83 79 71 56 42 33 30 25 21 7 4 360 355 347 342 336 334 329 323 315 309 308 304 305 304 303 306 304 303 302 298 295 293 294